Location: Ohmer (historical)
(38.0096°N, 122.0227°W)
Time: 23:51:12
(UTC+00:00)

SL-4 R/B - Pass Details

Date: 14 February 2026
Orbit: 382 x 515 km, 51.6° (Epoch: 9 March)

Event Time Altitude Azimuth Distance (km) Brightness Sun altitude
Exits shadow 12:41:18 21° 45° (NE) 1,088 4.0 -27.7°
Drops below altitude 10° 12:43:34 10° 81° (E) 1,632 5.4 -27.3°
Sets 12:46:07 0° 96° (E) 2,536 6.7 -26.8°
